クリステンセン彗星

210P/Christensen (2025)

English version
Home page
Updated on January 31, 2026

---------------------------------------------------------------------

・ プロフィール

・ 写真集

・ 軌道要素

Epoch 2025 May 5.0 TT = JDT 2460800.5
T 2025 Nov. 22.72774 TT                                 Pike
q   0.5244793            (2000.0)            P               Q
n   0.17538815     Peri.  345.94420     +0.17418376     -0.96845609
a   3.1608403      Node    93.79789     +0.91983245     +0.09542204
e   0.8340697      Incl.   10.28737     +0.35152282     +0.23018998
P   5.62
From 538 observations 2008 Dec. 8-2025 Aug. 3, mean residual 0".7.
     Nongravitational parameters A1 = -0.05, A2 = +0.0044.

・ 星図

・ 光度変化

        m1 = 14.0 + 5 logΔ + 15.0 log r  [ ,0]  (              〜2025年11月22日)
        m1 = 13.5 + 5 logΔ + 13.0 log r  [0, ]  (2025年11月22日〜              )

---------------------------------------------------------------------

軌道要素はM.P.E.C. 2025-P113に掲載されたものです。
星図はステラナビゲータ Ver.10 (アストロアーツ) で作成したものです。
光度グラフはComet for Windowsで作成したものです。

---------------------------------------------------------------------

Copyright(C) Seiichi Yoshida (comet@aerith.net). All rights reserved.